Overview Statistics Trail Chart Weather Telemetry Raw packets
 

This is the latest recevied weather packets stored in our database for station/object OE2WAO-15. If no packets are shown the sender has not sent any weather packets the latest 10 day(s).

<< 34 35 36 37 38 39 40 >>
Time Temp. Humidity Pressure Rain* Wind** Luminosity Snow
1787959546 16.67° C 99% 1020.4 hPa - - - -
1787958939 16.67° C 99% 1020.6 hPa - - - -
1787958328 17.22° C 99% 1020.5 hPa - - - -
1787957728 16.67° C 99% 1020.5 hPa - - - -
1787957113 16.67° C 99% 1020.3 hPa - - - -
1787956506 17.22° C 99% 1020.2 hPa - - - -
1787955898 17.22° C 99% 1020.4 hPa - - - -
1787955291 17.22° C 99% 1019.9 hPa - - - -
1787954683 17.22° C 99% 1019.8 hPa - - - -
1787954075 17.78° C 99% 1019.7 hPa - - - -
1787953467 18.33° C 99% 1019.4 hPa - - - -
1787952859 18.89° C 99% 1019.1 hPa - - - -
1787952251 19.44° C 99% 1018.5 hPa - - - -
1787951644 20° C 99% 1018.2 hPa - - - -
1787951036 20° C 99% 1017.8 hPa - - - -
1787950428 20° C 99% 1017.4 hPa - - - -
1787949821 20° C 99% 1017.1 hPa - - - -
1787949213 20° C 99% 1017 hPa - - - -
1787948605 20° C 99% 1016.9 hPa - - - -
1787947998 20° C 99% 1016.6 hPa - - - -
1787947390 20° C 99% 1016.8 hPa - - - -
1787946783 20.56° C 99% 1016.4 hPa - - - -
1787946175 20.56° C 99% 1015.9 hPa - - - -
1787945567 20.56° C 99% 1015.6 hPa - - - -
1787944960 21.11° C 99% 1015.5 hPa - - - -

* Rain since midnight (hover to see other rain measurements)
** Current wind speed in m/s (hover to see current wind gust speed)